Location: Unspecified
(41.4057°N, 2.1753°E)
Time: 06:56:10
(UTC+02:00)

ISS - Visible Passes

Search period start: 06 July 2015 00:00
Search period end: 16 July 2015 00:00
Orbit: 398 x 403 km, 51.6° (Epoch: 05 July)

Date Brightness Start Highest point End Pass type
(mag) Time Alt. Az. Time Alt. Az. Time Alt. Az.
12 Jul -0.8 05:18:07 10° SSE 05:19:38 13° SE 05:21:16 10° E visible
14 Jul -1.9 05:06:46 18° S 05:08:28 28° SE 05:11:21 10° ENE visible
15 Jul -1.0 04:15:11 15° SE 04:15:11 15° SE 04:16:55 10° E visible
15 Jul -3.1 05:47:49 10° WSW 05:51:02 62° NNW 05:54:16 10° NE visible
